RH
84 82 84 85 87 85 84 82 84 84 83 83 84 85 87 88 94 97 90 80 73 74 74 80 74 73 74 78 80 82 79 76 78
84 83 84 84 82 83 84 81 86 86 84 84 84 83 84 83 89 95 95 83 72 76 72 76 77 75 74 75 77 78 78 76 78
82 82 82 82 82 82 80 82 85 86 84 84 83 82 82 79 83 88 95 80 68 73 76 75 76 77 77 78 78 76 79 78 80
81 82 81 82 81 81 78 77 79 84 85 84 85 84 83 80 84 80 91 83 72 70 73 76 76 74 76 78 80 80 77 76 80
79 80 79 76 78 76 75 74 74 79 80 80 82 86 87 90 89 92 84 82 81 81 77 75 77 76 76 77 80 81 80 78 79
72 67 65 63 68 67 67 69 72 76 77 80 85 88 91 91 95 91 83 77 77 78 78 80 80 78 80 81 80 81 81 78 80
60 65 60 58 56 56 57 56 55 47 52 67 80 88 90 93 90 95 81 74 76 78 78 78 80 80 80 81 79 79 80 80 81
51 50 47 43 43 36 38 38 37 38 45 63 78 78 81 83 86 88 88 82 72 74 76 78 77 75 79 80 81 80 80 80 84
51 52 47 42 39 36 38 40 40 52 66 75 78 75 76 76 80 84 88 86 86 80 75 75 76 84 85 83 84 83 84 82 83
57 55 55 50 44 40 40 42 45 54 64 68 64 55 46 47 58 76 85 85 84 84 83 86 87 84 84 85 84 84 85 85 84
55 55 53 58 54 50 49 46 49 50 51 49 47 47 39 38 39 45 62 83 84 83 83 82 84 83 85 85 83 84 84 84 84
55 58 55 55 56 59 59 58 56 53 46 49 47 46 40 40 39 38 40 54 77 81 83 83 83 82 85 87 88 85 84 85 85
55 58 60 60 57 64 65 64 62 63 58 58 59 53 48 45 40 40 41 44 46 65 74 80 81 82 84 83 84 86 86 86 86
55 61 61 60 61 58 58 69 66 62 62 51 61 61 59 55 43 47 44 43 44 45 61 75 74 75 76 84 82 81 81 83 85
58 58 60 62 63 63 66 65 70 69 63 44 57 63 61 59 60 54 44 50 52 56 56 64 72 73 74 76 78 77 78 80 84
57 60 59 60 58 58 62 70 65 70 70 64 63 68 62 55 54 57 58 53 52 54 62 75 81 77 76 72 69 68 70 73 76
52 56 59 58 60 58 55 64 70 68 73 68 68 59 56 62 57 53 48 56 56 54 54 62 70 85 85 73 70 67 65 65 66
62 63 64 63 64 63 64 64 62 65 69 68 68 67 58 65 65 59 55 54 59 60 57 61 74 80 84 79 74 65 65 63 61
67 66 65 68 70 65 63 61 64 63 62 64 55 66 68 63 63 61 60 57 50 56 57 64 72 70 77 70 60 61 62 61 60
65 63 65 67 70 68 66 66 66 67 65 61 61 62 66 64 62 62 60 58 62 64 59 63 71 64 73 72 64 57 58 60 60
Wind_Speed
20 18 17 16 16 16 15 16 18 16 16 17 17 17 17 12 7 6 6 5 12 14 13 12 14 13 13 13 14 15 18 17 17
18 17 16 16 16 14 16 17 17 14 15 16 15 17 16 7 7 6 5 4 10 13 13 12 13 13 14 12 11 14 16 17 15
17 16 15 15 14 14 14 16 17 16 15 16 16 16 14 8 8 7 5 6 11 11 11 11 11 11 12 11 10 12 13 14 14
15 14 14 14 12 14 14 14 16 17 17 17 15 15 17 8 6 8 5 7 9 12 11 10 8 8 10 10 11 11 12 11 13
14 12 12 12 12 14 14 14 15 16 18 15 15 15 16 8 7 5 6 14 13 12 10 10 8 8 9 9 10 12 13 12 11
7 11 12 12 13 14 14 14 15 15 16 15 16 14 5 7 5 4 12 12 14 14 13 11 10 8 7 9 9 11 12 11 10
8 11 13 13 12 12 12 12 12 10 5 5 11 5 7 7 7 5 9 9 10 11 10 10 9 8 8 8 10 10 11 11 10
4 4 4 4 10 4 6 6 5 6 5 6 6 7 8 6 7 14 18 6 5 6 6 6 7 6 8 10 9 9 9 9 9
4 3 4 4 3 5 5 4 5 7 7 7 8 9 8 5 6 13 23 25 19 12 4 2 3 8 10 13 12 11 9 7 6
4 4 4 4 4 4 4 5 5 7 8 8 8 8 8 9 6 6 24 24 24 24 23 22 18 13 14 16 16 15 13 11 7
3 3 4 4 4 4 5 5 5 6 6 8 8 8 8 8 8 6 9 23 24 24 23 23 21 18 18 16 16 15 15 14 12
4 3 3 3 3 6 5 5 5 7 7 8 8 7 8 8 8 7 6 7 19 22 22 21 21 20 18 20 21 19 19 18 18
4 4 3 2 4 4 4 4 6 6 6 5 5 5 6 7 9 7 6 6 7 12 19 20 20 21 19 17 19 20 20 21 21
5 4 3 3 4 4 4 4 4 5 5 7 5 5 6 6 6 8 8 8 6 5 13 17 17 17 17 18 20 20 20 21 20
5 4 3 3 4 4 4 5 5 4 5 7 7 5 5 5 5 5 5 5 7 6 7 6 8 17 18 16 16 17 18 19 19
5 3 4 3 4 4 5 4 5 4 2 4 4 4 5 6 5 4 4 6 6 6 5 4 4 7 16 16 15 14 14 16 17
5 4 4 4 4 5 4 4 3 3 4 3 3 2 4 4 5 4 4 6 4 5 6 6 6 5 5 11 16 15 14 13 12
6 5 5 4 3 3 3 3 4 3 3 4 3 2 2 1 3 5 4 5 4 4 5 5 5 5 5 7 9 13 13 12 11
6 5 5 5 4 5 2 2 2 3 3 2 4 4 3 3 1 3 3 3 4 4 4 4 5 5 5 10 11 12 12 11 10
6 6 6 5 4 5 5 5 4 2 3 2 2 3 3 2 3 3 0 2 3 3 3 3 3 4 4 4 7 11 11 11 10
Wind_Direction
97 104 110 112 102 98 91 78 70 72 79 85 84 84 80 66 51 45 50 67 98 107 103 94 101 99 94 86 89 106 110 109 107
97 97 94 94 91 92 100 99 93 87 81 87 82 73 65 60 51 39 30 92 96 97 104 97 98 100 97 93 94 103 117 113 113
100 99 96 99 101 98 100 108 104 97 90 82 75 74 60 45 47 32 21 116 107 99 95 96 97 99 98 95 100 114 115 115 114
94 92 101 99 101 103 103 102 108 101 93 84 77 71 64 52 27 32 17 70 114 110 102 93 96 109 107 105 95 126 115 118 120
84 80 88 100 108 108 110 114 103 102 101 95 85 64 55 44 35 12 33 64 81 88 95 94 71 141 120 109 114 112 108 105 116
58 95 100 102 98 97 94 97 97 94 92 85 77 68 43 48 34 3 19 54 61 65 69 69 78 96 108 105 133 127 122 117 114
53 56 70 78 82 87 89 86 76 67 48 56 64 54 47 45 33 30 14 38 60 62 61 67 70 84 83 108 116 121 123 120 115
47 47 39 35 64 50 51 52 47 54 49 58 64 58 53 42 38 30 40 21 86 66 61 69 83 89 105 98 101 116 119 117 113
57 61 57 60 48 71 56 57 65 62 56 60 64 57 55 44 43 36 35 46 51 68 62 80 89 82 98 95 91 86 94 111 119
78 66 64 69 64 59 63 58 59 59 57 49 60 58 55 48 40 40 42 46 45 47 53 53 63 84 84 84 83 81 78 74 66
87 78 69 60 64 68 66 62 63 58 65 61 53 47 51 48 50 47 34 43 45 45 45 47 48 57 60 70 70 69 71 69 64
94 86 72 74 76 83 73 67 62 69 67 62 53 52 49 46 39 38 37 27 42 44 42 42 42 49 53 64 65 63 66 63 57
91 90 77 81 88 91 80 72 71 68 68 68 47 49 53 50 45 42 35 36 31 36 42 37 38 40 42 61 65 64 63 60 59
99 93 92 92 92 89 98 62 81 88 73 74 50 40 47 43 49 44 41 43 37 35 37 32 41 37 37 40 62 61 57 58 55
96 90 94 91 94 89 81 93 48 79 87 81 59 38 39 44 47 48 47 37 39 37 39 22 18 44 39 34 44 54 58 56 51
92 85 83 73 87 109 112 89 93 60 44 102 53 40 41 47 39 40 46 40 39 42 41 37 30 25 34 40 40 40 45 51 53
97 91 82 84 100 96 80 88 107 74 17 103 86 72 359 19 22 26 41 39 34 39 44 41 35 29 15 39 41 36 36 40 39
105 102 99 88 86 102 85 100 102 120 36 56 127 112 177 103 356 19 25 33 42 34 41 50 46 37 30 33 29 43 40 35 33
103 100 97 94 94 93 101 107 108 111 129 63 50 58 133 144 75 6 8 22 42 34 33 50 44 38 27 25 40 42 41 40 32
97 96 94 87 83 79 90 83 91 82 115 111 125 69 63 74 131 158 322 32 20 21 31 53 65 47 39 16 25 40 38 35 28